Location: Pinon Hills
(34.4429°N, 117.6403°W)
Time: 07:16:34
(UTC-07:00)

Daily predictions for brighter satellites

Satellite Brightness Start Highest point End
(mag) Time Altitude Azimuth Time Altitude Azimuth Time Altitude Azimuth
Cosmos 1656 3.7 19:34:23 10° SSW 19:39:59 72° ESE 19:45:32 10° NNE
ALOS 3.3 19:37:37 10° SE 19:41:33 28° ENE 19:45:30 10° NNE
H-2A R/B 4.3 19:38:57 10° ESE 19:41:42 19° ENE 19:44:29 10° NNE
Meteor 2-4 Rocket 4.4 19:37:34 10° NNW 19:43:25 66° W 19:49:17 10° S
Spot 2 Rocket 3.5 19:38:55 10° SSE 19:43:58 68° ENE 19:49:01 10° N
Meteor 1-28 Rocket 3.9 19:40:34 10° N 19:44:19 59° WNW 19:48:00 10° SSW
Resurs 1-3 3.9 19:40:33 10° SSE 19:44:46 48° ENE 19:49:00 10° N
NOAA 12 4.3 19:41:22 10° S 19:46:36 80° WSW 19:51:51 10° NNW
Tiangong 1 2.6 19:47:24 10° NW 19:50:08 27° NNE 19:52:49 10° ENE
RESURS DK-1 3.8 19:47:07 10° N 19:50:22 22° ENE 19:53:33 10° ESE
OAO 2 Rocket 3.3 19:46:56 10° W 19:51:55 85° N 19:56:54 10° E
FREGAT/IRIS 3.9 19:52:51 10° S 19:55:53 46° W 19:58:56 10° NNW
Cosmos 1937 Rocket 4.5 19:52:26 10° N 19:56:59 29° ENE 20:01:21 11° SE
Cosmos 1500 3.7 19:55:01 10° SSE 19:58:29 37° E 20:01:58 10° NNE
Helios 1A 3.0 19:54:45 10° SSE 19:58:54 85° WSW 20:03:07 10° NNW
Cosmos 2123 Rocket 4.0 19:55:00 10° N 20:01:12 86° E 20:07:23 10° S
Cosmos 1461 4.4 19:58:02 10° NW 20:01:41 34° WSW 20:05:14 10° S
Myojo/LAPS 3.9 20:02:55 10° WSW 20:05:12 24° S 20:06:33 15° SE
BREEZE-M DEB (TANK) 4.5 20:04:09 10° WSW 20:07:38 56° NNW 20:18:43 10° NE
CZ-2D R/B 3.6 20:05:54 10° SSE 20:09:35 44° ENE 20:13:18 10° N
Cosmos 2322 Rocket 3.4 20:06:28 10° SE 20:10:14 19° E 20:14:01 10° ENE
Cosmos 2227 Rocket 2.9 20:04:45 10° NNW 20:10:17 57° WSW 20:15:47 10° S
Cosmos 2298 Rocket 4.1 20:05:40 10° N 20:10:56 61° ENE 20:16:11 10° SSE
ERS-1 Rocket 4.4 20:09:01 15° E 20:11:18 20° ENE 20:14:51 10° NNE
Cosmos 1975 3.1 20:11:11 10° SSW 20:15:15 73° W 20:19:22 10° N
Resurs 01 Rocket 2.5 20:12:16 10° S 20:16:33 51° W 20:20:54 10° NNW
Lacrosse 5 rocket 2.9 20:16:08 10° WNW 20:19:18 28° WSW 20:22:25 10° S
Cosmos 1763 Rocket 3.5 20:18:05 10° S 20:23:00 51° ESE 20:27:55 10° NNE
Cosmos 2297 Rocket 2.7 20:19:14 10° NNW 20:24:47 61° WSW 20:30:20 10° S
Cosmos 1515 3.6 20:23:23 10° N 20:27:14 81° E 20:31:02 10° S
EO 1 Delta rocket 4.3 20:23:21 10° N 20:28:21 81° W 20:34:30 10° SSW
Cosmos 2360 4.2 20:26:56 10° S 20:32:32 61° ESE 20:38:11 10° NNE
Cosmos 2084 4.0 20:30:42 10° NW 20:34:46 55° WSW 20:38:06 16° SSE
Cosmos 2150 Rocket 3.9 20:30:15 10° NNW 20:35:26 90° WSW 20:39:58 14° SSE
Cosmos 1825 Rocket 4.0 20:33:19 10° N 20:37:29 40° E 20:38:42 33° ESE
Cosmos 1898 Rocket 3.7 20:37:10 10° NNW 20:42:27 73° WSW 20:47:08 13° S
Cosmos 1743 2.6 20:41:34 10° S 20:45:28 85° E 20:49:23 10° N
H-2A R/B 3.7 20:49:18 18° NE 20:49:18 18° NE 20:51:23 10° NNE
Meteor 1-21 4.5 20:42:55 10° N 20:48:34 51° E 20:51:00 32° SE
Cosmos 841 Rocket 3.4 20:44:01 10° SSW 20:49:15 83° ESE 20:54:29 10° NNE
Cosmos 1802 Rocket 4.0 20:43:32 10° S 20:49:53 73° E 20:56:18 10° N
Cosmos 1953 Rocket 4.0 20:46:17 10° N 20:50:32 42° E 20:50:51 41° E
Cosmos 2016 Rocket 3.9 20:45:43 10° S 20:51:43 61° E 20:57:49 10° NNE
Cosmos 1697 Rocket 4.4 20:48:15 10° SW 20:53:22 35° WNW 20:58:32 10° N
CZ-3C R/B 3.8 20:06:58 10° W 20:57:03 42° SSW 21:02:33 23° SSE
USA 186 2.9 20:56:22 27° SW 20:57:23 37° W 21:00:02 10° NNW
Cosmos 1939 Rocket 3.3 20:58:21 44° ENE 20:58:21 44° ENE 21:02:07 10° N
Cosmos 2098 Rocket 4.0 20:54:29 17° SSE 20:59:36 53° E 21:05:05 10° NNE
Cosmos 2173 Rocket 4.2 20:56:54 10° S 21:03:16 76° W 21:09:36 10° N
SJ-11-01 4.1 21:03:11 50° SSE 21:04:21 75° ENE 21:09:02 10° N
DELTA 2 R/B (1) 4.3 21:00:04 10° WNW 21:05:17 42° SSW 21:06:57 33° S
Lacrosse 5 2.4 21:02:48 10° NW 21:07:44 53° SW 21:09:26 36° S
Cosmos 1758 Rocket 3.7 21:04:20 10° N 21:08:07 53° NE 21:08:07 53° NE
SL-16 R/B 2.1 21:03:43 10° S 21:09:17 63° ESE 21:14:53 10° NNE
Cosmos 1375 Rocket 4.4 21:04:39 10° SSW 21:11:11 82° ESE 21:17:49 10° NNE
YAOGAN 11 4.1 21:13:22 61° S 21:14:07 83° WSW 21:18:35 10° NNW
Cosmos 967 Rocket 4.4 21:08:04 10° NNW 21:14:25 88° ENE 21:16:23 47° SSE
SPOT 5 3.8 21:15:52 34° NE 21:15:52 34° NE 21:19:21 10° N
Cosmos 1980 Rocket 3.7 21:13:10 10° SW 21:18:21 36° WNW 21:23:36 10° N
ALOS 4.4 21:15:09 10° SSW 21:18:54 24° W 21:22:41 10° NW
CZ-4 DEB 4.4 21:20:23 32° NW 21:20:23 32° NW 21:22:16 10° NNW
Cosmos 1864 Rocket 4.3 21:19:09 49° SSE 21:20:44 69° E 21:26:50 10° NNE
Cosmos 1666 3.8 21:23:52 38° N 21:23:52 38° N 21:26:21 10° N
Tiangong 1 3.5 21:23:42 10° WNW 21:25:01 22° WNW 21:25:01 22° WNW
deb Chang Zheng 4 4.4 21:22:23 10° NNE 21:25:22 42° NNE 21:25:22 42° NNE
RESURS DK-1 4.3 21:24:56 10° NW 21:28:20 25° WSW 21:29:31 22° SW
Centaur AC-125 4.1 21:13:46 10° W 21:30:13 43° SSW 21:31:02 41° S
Envisat 2.9 21:33:04 78° SW 21:33:17 80° WSW 21:38:23 10° NNW
OAO 2 Rocket 3.8 21:31:45 10° W 21:35:52 50° SW 21:35:52 50° SW
Cosmos 2058 Rocket 3.6 21:36:37 57° W 21:36:42 57° W 21:41:09 10° N
Cosmos 1340 4.5 21:37:58 10° NNW 21:41:01 29° W 21:41:01 29° W
Tsikada Rocket 3.9 21:36:32 10° N 21:42:58 82° E 21:43:16 79° SE
Cosmos 2263 Rocket 3.2 21:40:01 10° N 21:43:45 33° NNE 21:43:45 33° NNE
ERS-1 Rocket 4.0 21:49:02 38° WSW 21:49:44 40° W 21:54:28 10° NNW
Cosmos 2322 Rocket 3.0 21:48:25 10° SW 21:53:48 48° WNW 21:59:14 10° N
Cosmos 1725 Rocket 4.4 21:52:15 39° SW 21:54:26 61° W 22:00:37 10° N
H-2A R/B 4.2 22:15:47 16° NNE 22:15:47 16° NNE 22:16:55 10° N
Cosmos 2233 Rocket 4.4 22:15:10 60° NNW 22:15:10 60° NNW 22:20:27 10° N
BREEZE-M DEB (TANK) 4.4 22:32:41 10° NW 22:43:51 51° NNW 22:43:51 51° NNW
Cosmos 2360 Rocket 4.4 23:05:59 20° N 23:05:59 20° N 23:07:52 10° N
